Flag for China Weather past 2 weeks in Nanning, Guangxi, China

Now
81 °F

Clear.


Feels Like: 88 °F
Forecast: 78 / 94 °F
Wind: 6 mph from Northeast

Location: Nanning Airport

Current Time: May 28, 2015 at 5:06:26 AM

Latest Report: May 28, 2015 at 4:00 AM


Visibility: 10 mi

Pressure: 29.56 "Hg

Humidity: 94%

Dew point: 79 °F

Location of NanningLocation

Historic Weather in Nanning — Graph

°F

Nanning temperature yesterday

Maximum temperature yesterday: 95 °F (at 3:00 PM)
Minimum temperature yesterday: 79 °F (at 5:00 AM)
Average temperature yesterday: 86 °F

Past Weeks' High & Low Weather Summary

 TemperatureHumidityPressure
High95 °F (May 27, 3:00 PM)100% (May 16, 1:00 AM)29.86 "Hg (May 16, 1:00 AM)
Low72 °F (May 17, 6:00 AM)62% (May 17, 1:00 PM)29.53 "Hg (May 27, 5:00 PM)
Average82 °F85%29.69 "Hg
* Reported May 13 4:00 AM — May 28 4:00 AM, Nanning, Weather by CustomWeather, © 2015

Note: Actual official high and low records may vary slightly from our data, if they occured in-between our weather recording intervals... More about our weather records

Advertising

Nanning weather history for previous 24 hours

 ConditionsComfort  
Time TempWeatherWind HumidityBarometerVisibility
4:00 AM
Thu, May 28
81 °FClear.6 mph94%29.56 "Hg10 mi
3:00 AM81 °FClear.3 mph94%29.56 "Hg10 mi
2:00 AM81 °FClear.1 mph94%29.59 "Hg10 mi
1:00 AM81 °FClear.No wind94%29.59 "Hg10 mi
12:00 AM82 °FClear.1 mph89%29.62 "Hg10 mi
11:00 PM
Wed, May 27
82 °FPassing clouds.3 mph89%29.62 "HgN/A
10:00 PM84 °FClear.6 mph84%29.59 "Hg10 mi
9:00 PM84 °FPassing clouds.6 mph84%29.59 "HgN/A
8:00 PM86 °FPassing clouds.8 mph79%29.56 "HgN/A
7:00 PM88 °FSunny.10 mph79%29.56 "Hg10 mi
6:00 PM90 °FPassing clouds.10 mph75%29.53 "HgN/A
5:00 PM93 °FPassing clouds.13 mph67%29.53 "HgN/A
4:00 PM93 °FScattered clouds.10 mph67%29.56 "HgN/A
3:00 PM95 °FScattered clouds.8 mph67%29.56 "HgN/A
2:00 PM91 °FScattered clouds.8 mph71%29.59 "HgN/A
1:00 PM91 °FScattered clouds.6 mph67%29.62 "HgN/A
12:00 PM91 °FScattered clouds.6 mph71%29.65 "HgN/A
11:00 AM91 °FScattered clouds.8 mph71%29.65 "HgN/A
10:00 AM90 °FSunny.8 mph71%29.68 "Hg10 mi
9:00 AM88 °FSunny.8 mph75%29.68 "Hg10 mi
8:00 AM84 °FSunny.1 mph84%29.68 "Hg10 mi
7:00 AM81 °FSunny.3 mph94%29.68 "Hg10 mi
6:00 AM79 °FClear.3 mph94%29.65 "Hg10 mi
5:00 AM79 °FClear.3 mph94%29.65 "Hg10 mi
Weather by CustomWeather, © 2015

See weather overviewHow to use our weather pages